Northeast Philadelphia, PA

1:26 PM EDT on October 20, 2019 (GMT -0400)
Northeast Philadelphia

Weather History for KPNE - September, 2019

Change the Weather History Date:

Sunday, September 22, 2019

  Actual Average Record
Temperature  
Mean Temperature 74 °F -  
Max Temperature 90 °F 72 °F 89 °F (2010)
Min Temperature 60 °F 53 °F 41 °F (1997)
Cooling Degree Days 10    
Growing Degree Days 24 (Base 50)    
Moisture  
Dew Point 62 °F    
Average Humidity 64    
Maximum Humidity 87    
Minimum Humidity 40    
Precipitation  
Precipitation 0.00 in - - ()
Sea Level Pressure  
Sea Level Pressure 30.12 in    
Wind  
Wind Speed 3 mph ()    
Max Wind Speed 10 mph    
Max Gust Speed -    
Visibility 9.7 miles    
Events      
Averages and records for this station are not official NWS values.
T = Trace of Precipitation, MM = Missing Value Source: Averaged Metar Reports

Daily Weather History Graph

Daily Weather History Graph

Search for Another Location

Airport or City:

Astronomy

Sep. 22, 2019 Rise Set
Actual Time 6:47 AM EDT 6:57 PM EDT
Civil Twilight 6:20 AM EDT 7:24 PM EDT
Nautical Twilight 5:48 AM EDT 7:56 PM EDT
Astronomical Twilight 5:16 AM EDT 8:28 PM EDT
Moon No Moon Rise 2:50 PM EDT (9/22)
Length of Visible Light 13h 04m
Length of Day
12h 10m
Last Quarter, 44% of the Moon is Illuminated
Sep 22
Last Quarter
Sep 28
New
Oct 5
First Quarter
Oct 13
Full
Oct 21
Last Quarter

Hourly Weather History & Observations

Time (EDT) Temp. Heat Index Dew Point Humidity Pressure Visibility Wind Dir Wind Speed Gust Speed Precip Events Conditions
12:54 AM 64.9 °F - 59.0 °F 81% 30.20 in 10.0 mi Calm Calm - N/A   Clear
1:54 AM 63.0 °F - 57.0 °F 81% 30.19 in 10.0 mi Calm Calm - N/A   Clear
2:54 AM 63.0 °F - 57.9 °F 84% 30.19 in 10.0 mi Calm Calm - N/A   Clear
3:54 AM 63.0 °F - 57.9 °F 84% 30.18 in 10.0 mi Calm Calm - N/A   Clear
4:54 AM 61.0 °F - 57.0 °F 87% 30.18 in 8.0 mi NE 3.5 mph - N/A   Clear
5:54 AM 60.1 °F - 55.9 °F 86% 30.18 in 9.0 mi Calm Calm - N/A   Clear
6:54 AM 61.0 °F - 57.0 °F 87% 30.18 in 7.0 mi Calm Calm - N/A   Partly Cloudy
7:54 AM 64.9 °F - 59.0 °F 81% 30.19 in 8.0 mi Calm Calm - N/A   Partly Cloudy
8:54 AM 69.1 °F - 63.0 °F 81% 30.20 in 10.0 mi Calm Calm - N/A   Clear
9:54 AM 75.0 °F - 64.0 °F 69% 30.19 in 10.0 mi SSW 4.6 mph - N/A   Clear
10:54 AM 79.0 °F - 64.9 °F 62% 30.17 in 10.0 mi South 4.6 mph - N/A   Clear
11:54 AM 84.0 °F 86.3 °F 66.0 °F 55% 30.16 in 10.0 mi Variable 4.6 mph - N/A   Clear
12:54 PM 87.1 °F 88.3 °F 64.0 °F 46% 30.14 in 10.0 mi Variable 6.9 mph - N/A   Clear
1:54 PM 88.0 °F 88.7 °F 63.0 °F 43% 30.12 in 10.0 mi Variable 6.9 mph - N/A   Clear
2:54 PM 89.1 °F 90.0 °F 63.0 °F 42% 30.08 in 10.0 mi SSW 5.8 mph - N/A   Clear
3:54 PM 89.1 °F 90.0 °F 63.0 °F 42% 30.06 in 10.0 mi WSW 5.8 mph - N/A   Scattered Clouds
4:54 PM 89.1 °F 89.3 °F 62.1 °F 40% 30.05 in 10.0 mi SSW 6.9 mph - N/A   Partly Cloudy
5:54 PM 88.0 °F 88.7 °F 63.0 °F 43% 30.04 in 10.0 mi SSW 6.9 mph - N/A   Partly Cloudy
6:54 PM 86.0 °F 87.3 °F 64.0 °F 48% 30.04 in 10.0 mi Variable 3.5 mph - N/A   Clear
7:54 PM 84.0 °F 85.4 °F 64.0 °F 51% 30.04 in 10.0 mi SSW 10.4 mph - N/A   Clear
8:54 PM 82.0 °F 83.0 °F 62.1 °F 51% 30.05 in 10.0 mi SSW 5.8 mph - N/A   Clear
9:54 PM 79.0 °F - 63.0 °F 58% 30.05 in 10.0 mi Variable 3.5 mph - N/A   Clear
10:54 PM 78.1 °F - 63.0 °F 60% 30.04 in 10.0 mi SW 10.4 mph - N/A   Clear
11:54 PM 77.0 °F - 64.0 °F 64% 30.03 in 10.0 mi SSW 6.9 mph - N/A   Clear